Погода в Ижме

Погода в Ижме : погода сейчас, прогноз погоды и архив. Всё, что Вы хотите узнать о погоде в Ижме!

Поиск расширенной информации на нашем сайте:

Другие новости

Новости СМИ2

Главная страница сайта

Новости сайта

03.07.2017

Напоминаем, что на нашем специализированном сайте Метеоцентр.Азия вы можете получить высокодетализированные автоматические прогнозы погоды по пунктам России, СНГ и мира в авиационном формате (включающие направление и скорость ветра, видимость, явления погоды, количество и форму облачности, нижнюю и верхнюю границу облачности).


Погода в Ижме - сегодня

Время (UTC), дата Ветер
(°,м/с) 
Видим.   Явления Облачность Т
(°С)
Тd
(°С)
f(%) Тe
(°С)
Pmin
(гПа)
dP
(гПа)
Po
(мм)
O2
(г/м3)
Тmin Tmax R s Состояние
почвы
06 10.12.17 тихо ()   20000 м  слаб. снег  10/8 210 м средняя 
[St|As op]
-20 -22.6 80 -20  1023.6  1.1  764  334  -22.4         
09 10.12.17 тихо ()   20000 м  {снег}  10/0 верхняя 
[Ci fib]
-21.7 -24.2 80 -22  1024.4  0.8  764  336           
12 10.12.17 170 (Ю) 20000 м  {снег}  10/0 верхняя 
[Ci fib]
-26 -28.4 80 -27  1025.1  0.6  765  342           
15 10.12.17 тихо ()   20000 м    10/0 средняя, верхняя 
[Ac trans|Ci fib]
-23 -25.5 80 -23  1026.2  1.1  765  339    -19.8  0.2     
18 10.12.17 тихо ()   20000 м    ясно 
-21.2 -23.7 80 -21  1026.6  0.5  766  336           
21 10.12.17 180 (Ю) 20000 м  слаб. снег  10/0 средняя 
[As trans]
-20.5 -23 80 -21  1027.1  0.5  766  335           
00 11.12.17 170 (Ю) 20000 м  {снег}  10/0 средняя 
[As trans]
-20.1 -22.7 80 -20  1027.4  0.3  766  335           
03 11.12.17 160 (Ю) 20000 м    10/0 средняя 
[Ac As]
-17.5 -19.4 85 -20  1026.8  -0.5  766  331  -23.1    0.0  35  равномерный
сухой снег
100% 
06 11.12.17 150 (ЮВ) 20000 м    10/0 средняя 
[Ac und]
-14.8 -16.8 85 -17  1026.9  0.1  766  328           
09 11.12.17 150 (ЮВ) 20000 м  слаб. снег  10/0 средняя 
[Ac As]
-10.9 -12.9 85 -14  1026.9  0.1  766  323           
12 11.12.17 160 (Ю) 20000 м  {снег}  10/0 средняя 
[Ac As]
-9.5 -12.5 79 -12  1026.7  -0.2  766  321           
15 11.12.17 150 (ЮВ) 20000 м    10/0 средняя 
[Ac und]
-9.1 -12.1 79 -12  1026.3  -0.4  766  320    -9  0.0     
18 11.12.17 140 (ЮВ) 20000 м    10/0 средняя 
[Ac und]
-9.6 -13.2 75 -14  1026.1  -0.2  766  321           
21 11.12.17 150 (ЮВ) 20000 м    10/0 средняя 
[Ac und]
-10.7 -14.3 75 -14  1026.3  0.2  766  322           
00 12.12.17 160 (Ю) 20000 м    3/0 верхняя 
[Ci fib]
-15 -18.4 75 -19  1026.5  0.1  766  328           
03 12.12.17 150 (ЮВ) 20000 м    3/0 верхняя 
[Ci fib]
-15.6 -18.3 80 -20  1026.4  -0.1  766  329  -16      32  равномерный
сухой снег
100% 
06 12.12.17 140 (ЮВ) 20000 м    3/0 верхняя 
[Ci fib]
-17.4 -20 80 -22  1026.6  0.2  766  331  -17.4         
09 12.12.17 150 (ЮВ) 20000 м    10/4 1000 м средняя, верхняя 
[Sc|Ac trans|Ci fib]
-17.5 -20.9 75 -24  1027  0.4  766  331           
12 12.12.17 150 (ЮВ) 20000 м    10/8 720 м средняя 
[Sc|Ac und]
-17.8 -21.1 75 -24  1026.8  -0.3  766  332           
15 12.12.17 160 (Ю) 20000 м  слаб. снег  10/10 300 м 
[Frnb]
-16.1 -19.5 75 -22  1026.1  -0.6  766  329    -15.4  0.0     
18 12.12.17 150 (ЮВ) 20000 м  слаб. снег  10/5 300 м средняя 
[Frnb|Ac und]
-14.4 -17.1 80 -18  1025.8  -0.3  765  327           
21 12.12.17 160 (Ю) 20000 м  слаб. снег  10/8 210 м средняя 
[Frnb|As op]
-12.9 -14.9 85 -17  1025.3  -0.5  765  325           
00 13.12.17 160 (Ю) 20000 м  слаб. снег  10/10 240 м 
[Frnb]
-11.5 -13.5 85 -15  1024.5  -0.7  764  323           
03 13.12.17 160 (Ю) 20000 м  {снег}  10/10 660 м 
[Sc]
-9.9 -12.1 84 -13  1023.1  -1.4  763  320  -16.1    0.2  32  равномерный
сухой снег
100% 
06 13.12.17 150 (ЮВ) 4{10}  20000 м  {снег}  10/10 300 м 
[Frnb]
-7.3 -9.4 85 -11  1019.4  -3.5  761  316           
Время (UTC), дата Ветер
(°,м/с) 
Видим.   Явления Облачность Т
(°С)
Тd
(°С)
f(%) Тe
(°С)
Pmin
(гПа)
dP
(гПа)
Po
(мм)
O2
(г/м3)
Тmin Tmax R s Состояние
почвы

Для получения пояснительной информации подведите курсор к названию столбца.

ПОГОДА в Ижме - архив

Всё, что Вы хотите узнать о погоде в Ижме - удобно и подробно!

Выберите нужную дату (начиная с 1 января 2015* года) и нажмите кнопку "Найти".
Будут отображены архивные сводки погоды по пункту Ижма, начиная с указанной даты.


Отображать данные в формате CSV (для использования в таблицах Excel)


Внимание! Наш архив погоды предназначен исключительно для личного некоммерческого использования в познавательных целях. Если Вам необходимы официальные справки о состоянии погоды (для производственных, юридических, коммерческих и т.п. целей), обращайтесь в органы Росгидромета.

*Примечание: данная дата относится к архиву по метеостанциям СССР (Россия, СНГ, Балтия).
Архив по метеостанциям Зарубежной Европы и Азии (кроме Китая) хранится 10 дней, по другим регионам земного шара (Китай, Африка, Америка, Австралия, Океания) - 1 день.

Ижма - район местоположения метеостанции


Название, широта, долгота, высота метеостанции:
Ижма 65°ш. 53.9°д. 38 м над ур. моря [Российская Федерация]

Дополнительная информация

В oтличие oт бoльшинства пoгoдных сайтoв мы публикуем пoдрoбную метеoинфoрмацию в детальнoм прoфессиoнальнoм фoрмате.

Характеристики температуры и влажнoсти вoздуха измеряются на высoте 2 м в тени вдали oт зданий и деревьев.
Скoрoсть ветра измеряется на высoте 10 м (на урoвне рoста челoвека скoрoсть ветра ниже в 1.5-2 раза). Если метеoстанция нахoдится в гoрoде или в лесу, тo скoрoсть ветра занижена на 2-4 м/с пo сравнению с oткрытым местoм. Скoрoсть ветра над акватoриями крупных рек и oзёр, а также на вершинах хoлмoв на 2-5 м/с выше, чем в oбычных услoвиях.
Атмoсфернoе давление в разных тoчках местнoсти мoжет значительнo oтличаться oт давления на метеoстанции, в зависимoсти oт услoвий рельефа (при пoдъёме на 10 м давление пoнижается примернo на 1 мм рт.ст.).